Weather History for Hereford, TX

Change the Weather History Date:

Friday, December 30, 2011

  Actual Average (KAMA) Record (KAMA)
Temperature  
Mean Temperature 46 °F 36 °F  
Max Temperature 59 °F 49 °F 77 °F (1921)
Min Temperature 32 °F 23 °F -1 °F (1990)
Degree Days  
Heating Degree Days 20 29  
Month to date heating degree days 844  
Since 1 July heating degree days 1688  
Cooling Degree Days 0 0  
Month to date cooling degree days 0  
Year to date cooling degree days 1399  
Moisture  
Dew Point 31 °F    
Average Humidity 67    
Maximum Humidity 93    
Minimum Humidity 29    
Precipitation  
Precipitation 0.00 in 0.02 in 2.60 in (1896)
Month to date precipitation 0.69  
Year to date precipitation 20.34  
Snow  
Snow 0.00 in 0.10 in 2.00 in (2001)
Month to date snowfall 3.6  
Since 1 July snowfall 6.3  
Snow Depth -    
Sea Level Pressure  
Sea Level Pressure 30.08 in    
Wind  
Wind Speed 9 mph (WSW)    
Max Wind Speed 18 mph    
Max Gust Speed 26 mph    
Visibility 10 miles    
Events      
T = Trace of Precipitation, MM = Missing Value Source: NWS Daily Summary

Daily Weather History Graph

Daily Weather History Graph

Search for Another Location

Airport:

Trip Planner

Search our weather history database for the weather conditions in past years. The results will help you decide how hot, cold, wet, or windy it might be!

Date:

Astronomy

Dec. 30, 2011 Rise Set
Actual Time 7:56 AM CST 5:47 PM CST
Civil Twilight 7:28 AM CST 6:15 PM CST
Nautical Twilight 6:56 AM CST 6:46 PM CST
Astronomical Twilight 6:26 AM CST 7:17 PM CST
Moon 11:32 AM CST (12/30) No Moon Set
Length of Visible Light 10h 46m
Length of Day
9h 50m
Waxing Crescent, 36% of the Moon is Illuminated
Dec 30
Waxing Crescent
Jan 1
First Quarter
Jan 9
Full
Jan 16
Last Quarter
Jan 23
New

Hourly Weather History & Observations

Time (CST) Temp. Windchill Dew Point Humidity Pressure Visibility Wind Dir Wind Speed Gust Speed Precip Events Conditions
12:15 AM 37.4 °F 30.8 °F 33.8 °F 87% 29.95 in 10.0 mi NW 9.2 mph - N/A   Clear
12:35 AM 42.8 °F 35.4 °F 35.6 °F 76% 29.95 in 10.0 mi NNW 15.0 mph - N/A   Clear
12:55 AM 41.0 °F 37.1 °F 33.8 °F 76% 29.96 in 10.0 mi NNW 5.8 mph - N/A   Clear
1:15 AM 41.0 °F 35.8 °F 33.8 °F 76% 29.98 in 10.0 mi NNW 8.1 mph - N/A   Clear
1:35 AM 39.2 °F 31.2 °F 33.8 °F 81% 29.99 in 10.0 mi NNE 13.8 mph 24.2 mph N/A   Clear
1:55 AM 39.2 °F 30.8 °F 33.8 °F 81% 30.01 in 10.0 mi NNE 15.0 mph - N/A   Clear
2:15 AM 41.0 °F 33.1 °F 32.0 °F 70% 30.03 in 10.0 mi NNE 15.0 mph - N/A   Clear
2:55 AM 39.2 °F 32.0 °F 32.0 °F 75% 30.06 in 10.0 mi NNE 11.5 mph - N/A   Clear
3:15 AM 37.4 °F 31.4 °F 30.2 °F 75% 30.07 in 10.0 mi NNE 8.1 mph - N/A   Clear
3:55 AM 35.6 °F - 30.2 °F 81% 30.06 in 10.0 mi Calm Calm - N/A   Clear
4:15 AM 35.6 °F 32.8 °F 30.2 °F 81% 30.07 in 10.0 mi NW 3.5 mph - N/A   Clear
4:35 AM 33.8 °F 28.6 °F 30.2 °F 87% 30.08 in 10.0 mi NNW 5.8 mph - N/A   Clear
4:55 AM 32.0 °F 26.4 °F 30.2 °F 93% 30.07 in 10.0 mi NW 5.8 mph - N/A   Clear
5:15 AM 32.0 °F 24.8 °F 30.2 °F 93% 30.08 in 10.0 mi NW 8.1 mph - N/A   Clear
5:35 AM 33.8 °F 27.7 °F 30.2 °F 87% 30.08 in 10.0 mi NNW 6.9 mph - N/A   Clear
5:55 AM 32.0 °F 26.4 °F 30.2 °F 93% 30.09 in 10.0 mi NW 5.8 mph - N/A   Clear
6:15 AM 32.0 °F 26.4 °F 30.2 °F 93% 30.09 in 10.0 mi WNW 5.8 mph - N/A   Clear
6:35 AM 32.0 °F 27.5 °F 30.2 °F 93% 30.09 in 10.0 mi West 4.6 mph - N/A   Clear
6:55 AM 32.0 °F - 30.2 °F 93% 30.09 in 10.0 mi Calm Calm - N/A   Clear
7:15 AM 32.0 °F 26.4 °F 30.2 °F 93% 30.09 in 10.0 mi West 5.8 mph - N/A   Clear
7:35 AM 32.0 °F 28.7 °F 30.2 °F 93% 30.11 in 10.0 mi WSW 3.5 mph - N/A   Clear
7:55 AM 32.0 °F 27.5 °F 28.4 °F 87% 30.11 in 10.0 mi West 4.6 mph - N/A   Clear
8:35 AM 32.0 °F 23.6 °F 30.2 °F 93% 30.13 in 10.0 mi West 10.4 mph - N/A   Clear
8:55 AM 33.8 °F 27.0 °F 30.2 °F 87% 30.15 in 10.0 mi West 8.1 mph - N/A   Clear
9:15 AM 33.8 °F 26.4 °F 32.0 °F 93% 30.17 in 10.0 mi West 9.2 mph - N/A   Clear
9:35 AM 35.6 °F 30.7 °F 32.0 °F 87% 30.18 in 10.0 mi West 5.8 mph - N/A   Clear
9:55 AM 35.6 °F 29.9 °F 32.0 °F 87% 30.18 in 10.0 mi West 6.9 mph - N/A   Clear
10:15 AM 37.4 °F 33.8 °F 32.0 °F 81% 30.18 in 10.0 mi WSW 4.6 mph - N/A   Clear
10:35 AM 39.2 °F 35.9 °F 32.0 °F 75% 30.19 in 10.0 mi West 4.6 mph - N/A   Clear
10:55 AM 41.0 °F 39.0 °F 32.0 °F 70% 30.19 in 10.0 mi WSW 3.5 mph - N/A   Clear
11:15 AM 42.8 °F 40.1 °F 32.0 °F 66% 30.17 in 10.0 mi SW 4.6 mph - N/A   Clear
11:35 AM 44.6 °F 40.7 °F 32.0 °F 61% 30.17 in 10.0 mi WSW 6.9 mph - N/A   Clear
11:55 AM 44.6 °F 40.2 °F 32.0 °F 61% 30.17 in 10.0 mi WSW 8.1 mph - N/A   Clear
12:15 PM 46.4 °F 41.5 °F 32.0 °F 57% 30.16 in 10.0 mi SW 10.4 mph - N/A   Clear
12:35 PM 50.0 °F - 30.2 °F 47% 30.16 in 10.0 mi WSW 10.4 mph - N/A   Clear
12:55 PM 51.8 °F - 28.4 °F 41% 30.14 in 10.0 mi SW 12.7 mph - N/A   Clear
1:15 PM 53.6 °F - 26.6 °F 35% 30.13 in 10.0 mi SW 15.0 mph - N/A   Clear
1:35 PM 53.6 °F - 28.4 °F 38% 30.12 in 10.0 mi SW 12.7 mph 17.3 mph N/A   Clear
1:55 PM 53.6 °F - 26.6 °F 35% 30.10 in 10.0 mi SSW 13.8 mph 17.3 mph N/A   Clear
2:15 PM 55.4 °F - 28.4 °F 36% 30.09 in 10.0 mi SSW 12.7 mph - N/A   Clear
2:35 PM 55.4 °F - 28.4 °F 36% 30.08 in 10.0 mi SW 13.8 mph - N/A   Clear
2:55 PM 57.2 °F - 26.6 °F 31% 30.07 in 10.0 mi SW 17.3 mph 20.7 mph N/A   Clear
3:15 PM 59.0 °F - 26.6 °F 29% 30.07 in 10.0 mi SSW 18.4 mph 24.2 mph N/A   Clear
3:35 PM 55.4 °F - 28.4 °F 36% 30.05 in 10.0 mi SSW 18.4 mph 26.5 mph N/A   Clear
3:55 PM 57.2 °F - 30.2 °F 36% 30.04 in 10.0 mi SSW 16.1 mph 19.6 mph N/A   Clear
4:15 PM 57.2 °F - 30.2 °F 36% 30.04 in 10.0 mi SSW 15.0 mph 20.7 mph N/A   Clear
4:35 PM 57.2 °F - 32.0 °F 38% 30.04 in 10.0 mi SSW 15.0 mph - N/A   Clear
4:55 PM 55.4 °F - 30.2 °F 38% 30.03 in 10.0 mi SSW 12.7 mph 19.6 mph N/A   Clear
5:15 PM 55.4 °F - 32.0 °F 41% 30.03 in 10.0 mi SW 11.5 mph - N/A   Clear
5:35 PM 51.8 °F - 32.0 °F 47% 30.02 in 10.0 mi SW 11.5 mph - N/A   Clear
5:55 PM 51.8 °F - 32.0 °F 47% 30.02 in 10.0 mi SW 12.7 mph - N/A   Clear
6:35 PM 48.2 °F - 32.0 °F 54% 30.02 in 10.0 mi SW 10.4 mph - N/A   Clear
6:55 PM 46.4 °F 41.5 °F 33.8 °F 62% 30.02 in 10.0 mi SW 10.4 mph - N/A   Clear
7:15 PM 44.6 °F 39.2 °F 33.8 °F 66% 30.02 in 10.0 mi SW 10.4 mph - N/A   Clear
7:35 PM 44.6 °F 42.2 °F 32.0 °F 61% 30.02 in 10.0 mi SW 4.6 mph - N/A   Clear
7:55 PM 42.8 °F 36.6 °F 32.0 °F 66% 30.02 in 10.0 mi SW 11.5 mph - N/A   Clear
8:15 PM 42.8 °F 37.5 °F 32.0 °F 66% 30.02 in 10.0 mi SW 9.2 mph - N/A   Clear
8:35 PM 42.8 °F 38.0 °F 32.0 °F 66% 30.00 in 10.0 mi SW 8.1 mph - N/A   Clear
8:55 PM 41.0 °F 36.4 °F 32.0 °F 70% 30.00 in 10.0 mi SW 6.9 mph - N/A   Clear
9:15 PM 41.0 °F 35.2 °F 32.0 °F 70% 29.99 in 10.0 mi SW 9.2 mph - N/A   Clear
9:35 PM 41.0 °F 34.3 °F 32.0 °F 70% 29.99 in 10.0 mi SW 11.5 mph - N/A   Clear
9:55 PM 41.0 °F 35.8 °F 32.0 °F 70% 29.99 in 10.0 mi SW 8.1 mph - N/A   Clear
10:15 PM 42.8 °F 36.6 °F 32.0 °F 66% 29.98 in 10.0 mi SW 11.5 mph - N/A   Clear
10:55 PM 41.0 °F 34.3 °F 32.0 °F 70% 29.98 in 10.0 mi SW 11.5 mph - N/A   Clear
11:15 PM 41.0 °F 34.3 °F 32.0 °F 70% 29.97 in 10.0 mi SW 11.5 mph - N/A   Clear
11:35 PM 39.2 °F 32.5 °F 32.0 °F 75% 29.96 in 10.0 mi SW 10.4 mph - N/A   Clear
11:55 PM 37.4 °F 30.3 °F 32.0 °F 81% 29.95 in 10.0 mi SW 10.4 mph - N/A   Clear